| time (UTC) | temp F | wind direction | speed knots | gust knots | rain 1hr in | rain 24hr in | rain mn in | humidity % | barometer mb |
| 20260506181043 | 65 | 40 | 7.8 | 8.7 | 0.00 | 0.00 | 0.00 | 63 | 1012.0 |
| 20260506180544 | 66 | 17 | 0.9 | 7.8 | 0.00 | 0.00 | 0.00 | 63 | 1012.0 |
| 20260506180042 | 66 | 92 | 3.5 | 6.1 | 0.00 | 0.00 | 0.00 | 62 | 1012.0 |
| 20260506175542 | 66 | 54 | 3.5 | 7.0 | 0.00 | 0.00 | 0.00 | 61 | 1012.0 |
| 20260506175044 | 65 | 34 | 1.7 | 5.2 | 0.00 | 0.00 | 0.00 | 60 | 1012.0 |
| 20260506174543 | 65 | 74 | 7.0 | 11.3 | 0.00 | 0.00 | 0.00 | 59 | 1012.0 |
| 20260506174042 | 65 | 90 | 4.3 | 11.3 | 0.00 | 0.00 | 0.00 | 59 | 1012.0 |
| 20260506173543 | 65 | 102 | 5.2 | 11.3 | 0.00 | 0.00 | 0.00 | 62 | 1012.0 |
| 20260506173043 | 66 | 81 | 3.5 | 8.7 | 0.00 | 0.00 | 0.00 | 62 | 1012.0 |
| 20260506172544 | 65 | 115 | 7.0 | 11.3 | 0.00 | 0.00 | 0.00 | 64 | 1012.0 |
| 20260506172043 | 66 | 87 | 11.3 | 13.0 | 0.00 | 0.00 | 0.00 | 62 | 1012.0 |
| 20260506171542 | 67 | 70 | 8.7 | 12.2 | 0.00 | 0.00 | 0.00 | 60 | 1012.0 |
| 20260506171043 | 67 | 106 | 5.2 | 9.6 | 0.00 | 0.00 | 0.00 | 55 | 1012.0 |
| 20260506170543 | 67 | 78 | 7.8 | 11.3 | 0.00 | 0.00 | 0.00 | 56 | 1012.0 |
| 20260506170043 | 67 | 73 | 8.7 | 13.0 | 0.00 | 0.00 | 0.00 | 58 | 1011.0 |
| 20260506165542 | 68 | 110 | 7.0 | 8.7 | 0.00 | 0.00 | 0.00 | 58 | 1012.0 |
| 20260506165042 | 67 | 108 | 9.6 | 12.2 | 0.00 | 0.00 | 0.00 | 59 | 1012.0 |
| 20260506164543 | 67 | 101 | 9.6 | 13.0 | 0.00 | 0.00 | 0.00 | 56 | 1012.0 |
| 20260506164043 | 69 | 107 | 7.8 | 13.9 | 0.00 | 0.00 | 0.00 | 50 | 1012.0 |
| 20260506163542 | 68 | 97 | 7.8 | 9.6 | 0.00 | 0.00 | 0.00 | 54 | 1012.0 |
| 20260506163043 | 68 | 55 | 7.0 | 14.8 | 0.00 | 0.00 | 0.00 | 54 | 1012.0 |
| 20260506162545 | 69 | 110 | 9.6 | 9.6 | 0.00 | 0.00 | 0.00 | 46 | 1012.0 |
| 20260506162042 | 69 | 105 | 3.5 | 8.7 | 0.00 | 0.00 | 0.00 | 45 | 1012.0 |
| 20260506161543 | 70 | 51 | 5.2 | 9.6 | 0.00 | 0.00 | 0.00 | 44 | 1012.0 |
| 20260506161043 | 69 | 26 | 4.3 | 9.6 | 0.00 | 0.00 | 0.00 | 46 | 1012.0 |
| 20260506160545 | 69 | 103 | 7.0 | 9.6 | 0.00 | 0.00 | 0.00 | 44 | 1012.0 |
| 20260506160043 | 69 | 49 | 7.8 | 9.6 | 0.00 | 0.00 | 0.00 | 46 | 1011.0 |
| 20260506155542 | 69 | 64 | 4.3 | 7.8 | 0.00 | 0.00 | 0.00 | 43 | 1012.0 |
| 20260506155043 | 69 | 110 | 6.1 | 7.8 | 0.00 | 0.00 | 0.00 | 43 | 1012.0 |
| 20260506154542 | 69 | 67 | 2.6 | 8.7 | 0.00 | 0.00 | 0.00 | 46 | 1011.0 |
| 20260506154043 | 69 | 77 | 4.3 | 12.2 | 0.00 | 0.00 | 0.00 | 48 | 1011.0 |
| 20260506153542 | 70 | 62 | 6.1 | 7.8 | 0.00 | 0.00 | 0.00 | 42 | 1012.0 |
| 20260506153043 | 71 | 18 | 2.6 | 5.2 | 0.00 | 0.00 | 0.00 | 42 | 1011.0 |
| 20260506152543 | 69 | 66 | 5.2 | 10.4 | 0.00 | 0.00 | 0.00 | 44 | 1012.0 |
| 20260506152043 | 69 | 55 | 6.1 | 9.6 | 0.00 | 0.00 | 0.00 | 46 | 1012.0 |
| 20260506151542 | 68 | 77 | 2.6 | 9.6 | 0.00 | 0.00 | 0.00 | 48 | 1012.0 |
| 20260506151043 | 68 | 98 | 2.6 | 7.8 | 0.00 | 0.00 | 0.00 | 46 | 1012.0 |
| 20260506150545 | 68 | 119 | 7.8 | 11.3 | 0.00 | 0.00 | 0.00 | 45 | 1012.0 |
| 20260506150045 | 69 | 111 | 5.2 | 6.1 | 0.00 | 0.00 | 0.00 | 44 | 1012.0 |
| 20260506145542 | 68 | 70 | 6.1 | 12.2 | 0.00 | 0.00 | 0.00 | 45 | 1012.0 |
| 20260506145043 | 69 | 106 | 12.2 | 12.2 | 0.00 | 0.00 | 0.00 | 45 | 1012.0 |
| 20260506144542 | 69 | 111 | 7.8 | 12.2 | 0.00 | 0.00 | 0.00 | 45 | 1012.0 |
| 20260506144042 | 68 | 63 | 5.2 | 13.9 | 0.00 | 0.00 | 0.00 | 46 | 1012.0 |
| 20260506143543 | 68 | 7 | 1.7 | 7.8 | 0.00 | 0.00 | 0.00 | 45 | 1012.0 |
| 20260506143044 | 67 | 99 | 6.1 | 10.4 | 0.00 | 0.00 | 0.00 | 46 | 1012.0 |
| 20260506142542 | 67 | 112 | 8.7 | 10.4 | 0.00 | 0.00 | 0.00 | 47 | 1012.0 |
| 20260506142043 | 67 | 115 | 5.2 | 6.1 | 0.00 | 0.00 | 0.00 | 48 | 1012.0 |
| 20260506141543 | 68 | 60 | 7.0 | 8.7 | 0.00 | 0.00 | 0.00 | 49 | 1012.0 |
| 20260506141043 | 67 | 91 | 3.5 | 12.2 | 0.00 | 0.00 | 0.00 | 51 | 1012.0 |
| 20260506140542 | 68 | 54 | 12.2 | 13.9 | 0.00 | 0.00 | 0.00 | 49 | 1013.0 |
| 20260506140044 | 68 | 8 | 4.3 | 9.6 | 0.00 | 0.00 | 0.00 | 47 | 1012.0 |
| 20260506135543 | 68 | 33 | 9.6 | 16.5 | 0.00 | 0.00 | 0.00 | 49 | 1012.0 |
| 20260506135043 | 69 | 66 | 12.2 | 16.5 | 0.00 | 0.00 | 0.00 | 48 | 1012.0 |
| 20260506134542 | 71 | 105 | 2.6 | 4.3 | 0.00 | 0.00 | 0.00 | 46 | 1012.0 |
| 20260506134042 | 72 | 260 | 1.7 | 6.1 | 0.00 | 0.00 | 0.00 | 40 | 1012.0 |
| 20260506133544 | 72 | 182 | 3.5 | 4.3 | 0.00 | 0.00 | 0.00 | 35 | 1012.0 |
| 20260506133042 | 72 | 194 | 3.5 | 4.3 | 0.00 | 0.00 | 0.00 | 36 | 1012.0 |
| 20260506132543 | 71 | 142 | 1.7 | 6.1 | 0.00 | 0.00 | 0.00 | 37 | 1012.0 |
| 20260506132044 | 71 | 146 | 2.6 | 8.7 | 0.00 | 0.00 | 0.00 | 37 | 1012.0 |
| 20260506131543 | 70 | 32 | 5.2 | 8.7 | 0.00 | 0.00 | 0.00 | 37 | 1013.0 |
| 20260506131042 | 70 | 218 | 2.6 | 7.8 | 0.00 | 0.00 | 0.00 | 37 | 1013.0 |
| 20260506130544 | 70 | 146 | 4.3 | 11.3 | 0.00 | 0.00 | 0.00 | 35 | 1013.0 |
| 20260506130042 | 70 | 207 | 3.5 | 9.6 | 0.00 | 0.00 | 0.00 | 36 | 1013.0 |
| 20260506125543 | 70 | 155 | 8.7 | 13.0 | 0.00 | 0.00 | 0.00 | 38 | 1013.0 |
| 20260506125043 | 70 | 202 | 4.3 | 8.7 | 0.00 | 0.00 | 0.00 | 38 | 1013.0 |
| 20260506124542 | 69 | 146 | 5.2 | 9.6 | 0.00 | 0.00 | 0.00 | 39 | 1013.0 |
| 20260506124042 | 69 | 183 | 4.3 | 9.6 | 0.00 | 0.00 | 0.00 | 39 | 1013.0 |
| 20260506123542 | 69 | 186 | 8.7 | 11.3 | 0.00 | 0.00 | 0.00 | 39 | 1013.0 |
| 20260506123043 | 69 | 147 | 7.8 | 13.0 | 0.00 | 0.00 | 0.00 | 37 | 1013.0 |
| 20260506122543 | 68 | 108 | 0.9 | 8.7 | 0.00 | 0.00 | 0.00 | 39 | 1013.0 |
| 20260506122042 | 70 | 162 | 10.4 | 11.3 | 0.00 | 0.00 | 0.00 | 37 | 1013.0 |
| 20260506121542 | 68 | 136 | 4.3 | 7.0 | 0.00 | 0.00 | 0.00 | 40 | 1013.0 |
| 20260506121043 | 68 | 136 | 1.7 | 7.8 | 0.00 | 0.00 | 0.00 | 40 | 1013.0 |
| 20260506120544 | 68 | 230 | 3.5 | 8.7 | 0.00 | 0.00 | 0.00 | 40 | 1013.0 |
| 20260506120044 | 69 | 147 | 5.2 | 8.7 | 0.00 | 0.00 | 0.00 | 39 | 1013.0 |
| 20260506115543 | 68 | 179 | 8.7 | 12.2 | 0.00 | 0.00 | 0.00 | 38 | 1013.0 |
| 20260506115043 | 68 | 139 | 5.2 | 7.0 | 0.00 | 0.00 | 0.00 | 39 | 1013.0 |
| 20260506114543 | 68 | 169 | 4.3 | 13.9 | 0.00 | 0.00 | 0.00 | 39 | 1013.0 |
| 20260506114043 | 67 | 147 | 2.6 | 6.1 | 0.00 | 0.00 | 0.00 | 41 | 1013.0 |
| 20260506113542 | 68 | 311 | 3.5 | 4.3 | 0.00 | 0.00 | 0.00 | 41 | 1013.0 |
| 20260506113043 | 68 | 165 | 4.3 | 6.1 | 0.00 | 0.00 | 0.00 | 40 | 1013.0 |
| 20260506112542 | 67 | 121 | 3.5 | 9.6 | 0.00 | 0.00 | 0.00 | 41 | 1013.0 |
| 20260506112042 | 68 | 202 | 3.5 | 6.1 | 0.00 | 0.00 | 0.00 | 40 | 1013.0 |
| 20260506111542 | 67 | 233 | 2.6 | 7.8 | 0.00 | 0.00 | 0.00 | 41 | 1013.0 |
| 20260506111042 | 67 | 158 | 6.1 | 11.3 | 0.00 | 0.00 | 0.00 | 41 | 1013.0 |
| 20260506110542 | 67 | 236 | 7.8 | 7.8 | 0.00 | 0.00 | 0.00 | 41 | 1014.0 |
| 20260506110043 | 66 | 216 | 4.3 | 5.2 | 0.00 | 0.00 | 0.00 | 42 | 1013.0 |
| 20260506105543 | 66 | 133 | 2.6 | 6.1 | 0.00 | 0.00 | 0.00 | 43 | 1013.0 |
| 20260506105042 | 66 | 126 | 3.5 | 4.3 | 0.00 | 0.00 | 0.00 | 46 | 1013.0 |
| 20260506104542 | 67 | 291 | 2.6 | 6.1 | 0.00 | 0.00 | 0.00 | 45 | 1013.0 |
| 20260506104045 | 67 | 59 | 4.3 | 7.0 | 0.00 | 0.00 | 0.00 | 45 | 1013.0 |
| 20260506103542 | 66 | 13 | 3.5 | 7.8 | 0.00 | 0.00 | 0.00 | 47 | 1013.0 |
| 20260506103043 | 66 | 73 | 1.7 | 7.0 | 0.00 | 0.00 | 0.00 | 47 | 1014.0 |
| 20260506102543 | 66 | 57 | 0.9 | 2.6 | 0.00 | 0.00 | 0.00 | 46 | 1014.0 |
| 20260506102042 | 66 | 120 | 2.6 | 9.6 | 0.00 | 0.00 | 0.00 | 45 | 1014.0 |
| 20260506101542 | 66 | 348 | 3.5 | 3.5 | 0.00 | 0.00 | 0.00 | 45 | 1013.0 |
| 20260506101042 | 66 | 306 | 6.1 | 7.8 | 0.00 | 0.00 | 0.00 | 45 | 1014.0 |
| 20260506100542 | 66 | 56 | 2.6 | 6.1 | 0.00 | 0.00 | 0.00 | 45 | 1014.0 |
| 20260506100051 | 65 | 79 | 2.6 | 12.2 | 0.00 | 0.00 | 0.00 | 44 | 1014.0 |
| 20260506095543 | 65 | 73 | 3.5 | 7.8 | 0.00 | 0.00 | 0.00 | 46 | 1014.0 |
| 20260506095043 | 65 | 338 | 7.0 | 14.8 | 0.00 | 0.00 | 0.00 | 46 | 1014.0 |
| 20260506094542 | 66 | 62 | 7.8 | 19.1 | 0.00 | 0.00 | 0.00 | 43 | 1013.0 |
| 20260506094042 | 65 | 184 | 5.2 | 9.6 | 0.00 | 0.00 | 0.00 | 44 | 1014.0 |
| 20260506093543 | 65 | 191 | 4.3 | 6.1 | 0.00 | 0.00 | 0.00 | 42 | 1014.0 |
| 20260506093042 | 65 | 211 | 7.8 | 9.6 | 0.00 | 0.00 | 0.00 | 44 | 1014.0 |
| 20260506092545 | 65 | 225 | 1.7 | 7.0 | 0.00 | 0.00 | 0.00 | 43 | 1014.0 |
| 20260506092042 | 65 | 164 | 6.1 | 7.8 | 0.00 | 0.00 | 0.00 | 45 | 1014.0 |
| 20260506091543 | 64 | 349 | 0.0 | 7.8 | 0.00 | 0.00 | 0.00 | 45 | 1014.0 |
| 20260506091043 | 64 | 229 | 3.5 | 10.4 | 0.00 | 0.00 | 0.00 | 44 | 1014.0 |
| 20260506090542 | 64 | 213 | 6.1 | 7.0 | 0.00 | 0.00 | 0.00 | 45 | 1014.0 |
| 20260506090042 | 64 | 149 | 7.0 | 9.6 | 0.00 | 0.00 | 0.00 | 45 | 1014.0 |
| 20260506085542 | 64 | 230 | 9.6 | 12.2 | 0.00 | 0.00 | 0.00 | 45 | 1013.0 |
| 20260506085042 | 64 | 190 | 3.5 | 12.2 | 0.00 | 0.00 | 0.00 | 46 | 1014.0 |
| 20260506084543 | 63 | 242 | 3.5 | 13.0 | 0.00 | 0.00 | 0.00 | 48 | 1013.0 |
| 20260506084043 | 63 | 152 | 12.2 | 15.6 | 0.00 | 0.00 | 0.00 | 47 | 1013.0 |
| 20260506083543 | 63 | 157 | 7.8 | 11.3 | 0.00 | 0.00 | 0.00 | 48 | 1014.0 |
| 20260506083043 | 62 | 239 | 2.6 | 10.4 | 0.00 | 0.00 | 0.00 | 48 | 1014.0 |
| 20260506082543 | 62 | 154 | 4.3 | 13.0 | 0.00 | 0.00 | 0.00 | 49 | 1013.0 |
| 20260506082042 | 62 | 218 | 4.3 | 7.8 | 0.00 | 0.00 | 0.00 | 50 | 1013.0 |
| 20260506081543 | 62 | 249 | 3.5 | 9.6 | 0.00 | 0.00 | 0.00 | 51 | 1013.0 |
| 20260506081043 | 61 | 166 | 0.9 | 7.8 | 0.00 | 0.00 | 0.00 | 52 | 1013.0 |
| 20260506080543 | 61 | 184 | 4.3 | 11.3 | 0.00 | 0.00 | 0.00 | 52 | 1014.0 |
| 20260506073043 | 60 | 173 | 7.0 | 10.4 | 0.00 | 0.00 | 0.00 | 53 | 1013.0 |
| 20260506072543 | 61 | 321 | 1.7 | 4.3 | 0.00 | 0.00 | 0.00 | 54 | 1013.0 |
| 20260506072042 | 59 | 6 | 0.9 | 2.6 | 0.00 | 0.00 | 0.00 | 56 | 1013.0 |
| 20260506071542 | 59 | 98 | 3.5 | 4.3 | 0.00 | 0.00 | 0.00 | 55 | 1013.0 |
| 20260506071044 | 59 | 261 | 0.9 | 3.5 | 0.00 | 0.00 | 0.00 | 56 | 1013.0 |
| 20260506070542 | 59 | 331 | 2.6 | 5.2 | 0.00 | 0.00 | 0.00 | 57 | 1013.0 |
| 20260506062043 | 57 | 124 | 2.6 | 5.2 | 0.00 | 0.00 | 0.00 | 60 | 1013.0 |
| 20260506061543 | 57 | 42 | 1.7 | 1.7 | 0.00 | 0.00 | 0.00 | 60 | 1013.0 |
| 20260506061043 | 57 | 171 | 2.6 | 3.5 | 0.00 | 0.00 | 0.00 | 60 | 1013.0 |
| 20260506060543 | 57 | 147 | 0.0 | 3.5 | 0.00 | 0.00 | 0.00 | 60 | 1013.0 |
| 20260506051043 | 54 | 109 | 2.6 | 7.8 | 0.00 | 0.00 | 0.00 | 66 | 1013.0 |
| 20260506050542 | 55 | 152 | 6.1 | 7.0 | 0.00 | 0.00 | 0.00 | 65 | 1013.0 |
| 20260506045042 | 54 | 108 | 4.3 | 5.2 | 0.00 | 0.00 | 0.00 | 67 | 1013.0 |
| 20260506044542 | 54 | 138 | 4.3 | 5.2 | 0.00 | 0.00 | 0.00 | 65 | 1013.0 |
| 20260506044042 | 54 | 154 | 2.6 | 7.0 | 0.00 | 0.00 | 0.00 | 65 | 1013.0 |
| 20260506043542 | 54 | 281 | 0.9 | 4.3 | 0.00 | 0.00 | 0.00 | 67 | 1012.0 |
| 20260506043045 | 53 | 147 | 2.6 | 8.7 | 0.00 | 0.00 | 0.00 | 68 | 1013.0 |
| 20260506042543 | 53 | 183 | 2.6 | 6.1 | 0.00 | 0.00 | 0.00 | 69 | 1012.0 |
| 20260506042042 | 53 | 172 | 1.7 | 3.5 | 0.00 | 0.00 | 0.00 | 70 | 1013.0 |
| 20260506041543 | 53 | 167 | 0.9 | 2.6 | 0.00 | 0.00 | 0.00 | 70 | 1013.0 |
| 20260506041043 | 53 | 209 | 2.6 | 2.6 | 0.00 | 0.00 | 0.00 | 71 | 1013.0 |
| 20260506040543 | 53 | 154 | 1.7 | 2.6 | 0.00 | 0.00 | 0.00 | 71 | 1013.0 |
| 20260506040042 | 53 | 115 | 0.0 | 1.7 | 0.00 | 0.00 | 0.00 | 71 | 1013.0 |
| 20260506035542 | 53 | 110 | 2.6 | 2.6 | 0.00 | 0.00 | 0.00 | 71 | 1013.0 |
| 20260506035042 | 54 | 143 | 2.6 | 2.6 | 0.00 | 0.00 | 0.00 | 70 | 1013.0 |
| 20260506034543 | 54 | 187 | 1.7 | 2.6 | 0.00 | 0.00 | 0.00 | 70 | 1013.0 |
| 20260506034043 | 54 | 146 | 2.6 | 3.5 | 0.00 | 0.00 | 0.00 | 70 | 1013.0 |
| 20260506033542 | 54 | 112 | 1.7 | 3.5 | 0.00 | 0.00 | 0.00 | 70 | 1013.0 |
| 20260506033044 | 54 | 138 | 3.5 | 3.5 | 0.00 | 0.00 | 0.00 | 69 | 1012.0 |
| 20260506032544 | 54 | 141 | 3.5 | 4.3 | 0.00 | 0.00 | 0.00 | 69 | 1013.0 |
| 20260506032042 | 55 | 145 | 3.5 | 4.3 | 0.00 | 0.00 | 0.00 | 69 | 1013.0 |
| 20260506031542 | 55 | 141 | 5.2 | 6.1 | 0.00 | 0.00 | 0.00 | 68 | 1013.0 |
| 20260506031042 | 55 | 147 | 6.1 | 6.1 | 0.00 | 0.00 | 0.00 | 68 | 1013.0 |
| 20260506030542 | 55 | 168 | 3.5 | 4.3 | 0.00 | 0.00 | 0.00 | 68 | 1012.0 |
| 20260506030043 | 55 | 157 | 0.0 | 4.3 | 0.00 | 0.00 | 0.00 | 68 | 1012.0 |
| 20260506025542 | 55 | 120 | 0.9 | 1.7 | 0.00 | 0.00 | 0.00 | 68 | 1012.0 |
| 20260506025042 | 55 | 121 | 2.6 | 3.5 | 0.00 | 0.00 | 0.00 | 68 | 1012.0 |
| 20260506024542 | 55 | 165 | 6.1 | 6.1 | 0.00 | 0.00 | 0.00 | 68 | 1013.0 |
| 20260506024043 | 55 | 156 | 2.6 | 7.0 | 0.00 | 0.00 | 0.00 | 68 | 1012.0 |
| 20260506023542 | 55 | 169 | 3.5 | 8.7 | 0.00 | 0.00 | 0.00 | 68 | 1012.0 |
| 20260506023043 | 55 | 192 | 4.3 | 8.7 | 0.00 | 0.00 | 0.00 | 69 | 1012.0 |
| 20260506022542 | 55 | 190 | 5.2 | 12.2 | 0.00 | 0.00 | 0.00 | 69 | 1012.0 |
| 20260506022042 | 55 | 184 | 2.6 | 8.7 | 0.00 | 0.00 | 0.00 | 69 | 1012.0 |
| 20260506021543 | 55 | 172 | 3.5 | 9.6 | 0.00 | 0.00 | 0.00 | 68 | 1012.0 |
| 20260506021043 | 55 | 195 | 2.6 | 9.6 | 0.00 | 0.00 | 0.00 | 67 | 1012.0 |
| 20260506020542 | 55 | 164 | 6.1 | 8.7 | 0.00 | 0.00 | 0.00 | 67 | 1012.0 |
| 20260506020043 | 56 | 168 | 3.5 | 9.6 | 0.00 | 0.00 | 0.00 | 65 | 1012.0 |
| 20260506015542 | 56 | 189 | 4.3 | 6.1 | 0.00 | 0.00 | 0.00 | 64 | 1012.0 |
| 20260506015042 | 56 | 127 | 3.5 | 7.0 | 0.00 | 0.00 | 0.00 | 63 | 1012.0 |
| 20260506014542 | 57 | 186 | 8.7 | 10.4 | 0.00 | 0.00 | 0.00 | 62 | 1012.0 |
| 20260506014042 | 57 | 209 | 8.7 | 11.3 | 0.00 | 0.00 | 0.00 | 62 | 1012.0 |
| 20260506013542 | 57 | 221 | 7.0 | 11.3 | 0.00 | 0.00 | 0.00 | 63 | 1012.0 |
| 20260506013042 | 56 | 219 | 5.2 | 10.4 | 0.00 | 0.00 | 0.00 | 64 | 1012.0 |
| 20260506012542 | 56 | 206 | 4.3 | 7.8 | 0.00 | 0.00 | 0.00 | 65 | 1012.0 |
| 20260506012042 | 56 | 138 | 2.6 | 4.3 | 0.00 | 0.00 | 0.00 | 65 | 1012.0 |
| 20260506011542 | 56 | 220 | 2.6 | 5.2 | 0.00 | 0.00 | 0.00 | 66 | 1012.0 |
| 20260506011043 | 56 | 353 | 0.0 | 4.3 | 0.00 | 0.00 | 0.00 | 66 | 1012.0 |
| 20260506010542 | 57 | 197 | 3.5 | 6.1 | 0.00 | 0.00 | 0.00 | 66 | 1012.0 |
| 20260506010044 | 57 | 115 | 4.3 | 6.1 | 0.00 | 0.00 | 0.00 | 65 | 1012.0 |
| 20260506005543 | 57 | 197 | 5.2 | 7.0 | 0.00 | 0.00 | 0.00 | 66 | 1012.0 |
| 20260506005043 | 57 | 168 | 2.6 | 4.3 | 0.00 | 0.00 | 0.00 | 66 | 1012.0 |
| 20260506004543 | 57 | 220 | 1.7 | 9.6 | 0.00 | 0.00 | 0.00 | 66 | 1012.0 |
| 20260506004042 | 57 | 122 | 1.7 | 9.6 | 0.00 | 0.00 | 0.00 | 66 | 1012.0 |
| 20260506003543 | 57 | 158 | 6.1 | 13.9 | 0.00 | 0.00 | 0.00 | 66 | 1012.0 |
| 20260506003042 | 57 | 165 | 3.5 | 9.6 | 0.00 | 0.00 | 0.00 | 65 | 1013.0 |
| 20260506002542 | 57 | 198 | 3.5 | 8.7 | 0.00 | 0.00 | 0.00 | 64 | 1012.0 |
| 20260506002042 | 57 | 169 | 5.2 | 5.2 | 0.00 | 0.00 | 0.00 | 63 | 1013.0 |
| 20260506001542 | 58 | 193 | 7.0 | 13.0 | 0.00 | 0.00 | 0.00 | 62 | 1013.0 |
| 20260506001042 | 58 | 163 | 5.2 | 7.8 | 0.00 | 0.00 | 0.00 | 61 | 1012.0 |
| 20260506000543 | 58 | 288 | 1.7 | 7.0 | 0.00 | 0.00 | 0.00 | 61 | 1013.0 |
| 20260506000043 | 58 | 171 | 5.2 | 5.2 | 0.00 | 0.00 | 0.22 | 60 | 1013.0 |
| 20260505235542 | 58 | 242 | 2.6 | 10.4 | 0.00 | 0.00 | 0.22 | 58 | 1013.0 |
| 20260505235042 | 59 | 166 | 2.6 | 9.6 | 0.00 | 0.00 | 0.22 | 57 | 1013.0 |
| 20260505234542 | 59 | 230 | 2.6 | 7.8 | 0.00 | 0.00 | 0.22 | 56 | 1013.0 |
| 20260505234043 | 59 | 185 | 11.3 | 13.9 | 0.00 | 0.00 | 0.22 | 56 | 1013.0 |
| 20260505233542 | 59 | 183 | 4.3 | 14.8 | 0.00 | 0.00 | 0.22 | 55 | 1013.0 |
| 20260505233042 | 59 | 196 | 2.6 | 12.2 | 0.00 | 0.00 | 0.22 | 55 | 1013.0 |
| 20260505232542 | 58 | 182 | 5.2 | 9.6 | 0.00 | 0.00 | 0.22 | 58 | 1012.0 |
| 20260505232043 | 57 | 296 | 1.7 | 4.3 | 0.00 | 0.00 | 0.22 | 60 | 1013.0 |
| 20260505231543 | 57 | 130 | 2.6 | 3.5 | 0.00 | 0.00 | 0.22 | 61 | 1013.0 |
| 20260505231042 | 57 | 268 | 2.6 | 6.1 | 0.00 | 0.00 | 0.22 | 61 | 1012.0 |
| 20260505230542 | 57 | 168 | 4.3 | 7.8 | 0.00 | 0.00 | 0.22 | 61 | 1012.0 |
| 20260505230043 | 57 | 116 | 3.5 | 7.8 | 0.00 | 0.00 | 0.22 | 61 | 1012.0 |
| 20260505225543 | 58 | 154 | 2.6 | 4.3 | 0.00 | 0.00 | 0.22 | 59 | 1012.0 |
| 20260505225042 | 58 | 171 | 1.7 | 5.2 | 0.00 | 0.00 | 0.22 | 59 | 1012.0 |
| 20260505224543 | 58 | 161 | 0.0 | 4.3 | 0.00 | 0.00 | 0.22 | 59 | 1012.0 |
| 20260505224043 | 58 | 171 | 2.6 | 3.5 | 0.00 | 0.00 | 0.22 | 60 | 1012.0 |
| 20260505223544 | 58 | 200 | 2.6 | 2.6 | 0.00 | 0.00 | 0.22 | 60 | 1012.0 |
| 20260505223043 | 58 | 270 | 0.0 | 4.3 | 0.00 | 0.00 | 0.22 | 59 | 1012.0 |
| 20260505222546 | 59 | 180 | 2.6 | 2.6 | 0.00 | 0.00 | 0.22 | 58 | 1013.0 |
| 20260505222052 | 59 | 191 | 1.7 | 2.6 | 0.00 | 0.00 | 0.22 | 57 | 1013.0 |
| 20260505221542 | 60 | 145 | 3.5 | 4.3 | 0.00 | 0.00 | 0.22 | 55 | 1013.0 |
| 20260505221043 | 60 | 344 | 0.9 | 1.7 | 0.00 | 0.00 | 0.22 | 54 | 1013.0 |
| 20260505220542 | 60 | 202 | 2.6 | 2.6 | 0.00 | 0.00 | 0.22 | 54 | 1013.0 |
| 20260505220042 | 60 | 235 | 1.7 | 3.5 | 0.00 | 0.00 | 0.22 | 54 | 1013.0 |
| 20260505215542 | 60 | 324 | 2.6 | 6.1 | 0.00 | 0.00 | 0.22 | 56 | 1013.0 |
| 20260505215042 | 60 | 203 | 2.6 | 9.6 | 0.00 | 0.00 | 0.22 | 57 | 1013.0 |
| 20260505214542 | 59 | 251 | 5.2 | 14.8 | 0.00 | 0.00 | 0.22 | 61 | 1013.0 |
| 20260505214042 | 60 | 160 | 7.8 | 9.6 | 0.00 | 0.00 | 0.22 | 59 | 1013.0 |
| 20260505213542 | 59 | 186 | 2.6 | 7.0 | 0.00 | 0.00 | 0.22 | 64 | 1013.0 |
| 20260505213042 | 59 | 222 | 9.6 | 13.9 | 0.00 | 0.00 | 0.22 | 66 | 1013.0 |
| 20260505212543 | 59 | 355 | 3.5 | 14.8 | 0.00 | 0.00 | 0.22 | 68 | 1013.0 |
| 20260505212043 | 59 | 114 | 2.6 | 8.7 | 0.00 | 0.00 | 0.22 | 71 | 1014.0 |
| 20260505211542 | 59 | 224 | 6.1 | 13.0 | 0.00 | 0.00 | 0.22 | 78 | 1014.0 |
| 20260505211043 | 59 | 197 | 1.7 | 4.3 | 0.00 | 0.00 | 0.22 | 79 | 1014.0 |
| 20260505210542 | 59 | 154 | 0.9 | 4.3 | 0.00 | 0.00 | 0.22 | 79 | 1014.0 |
| 20260505210043 | 59 | 214 | 1.7 | 3.5 | 0.00 | 0.00 | 0.22 | 79 | 1013.0 |
| 20260505205542 | 59 | 200 | 2.6 | 4.3 | 0.00 | 0.00 | 0.22 | 78 | 1013.0 |
| 20260505205044 | 59 | 211 | 1.7 | 4.3 | 0.00 | 0.00 | 0.22 | 78 | 1013.0 |
| 20260505204542 | 59 | 227 | 1.7 | 5.2 | 0.00 | 0.00 | 0.22 | 78 | 1013.0 |
| 20260505204046 | 59 | 311 | 2.6 | 2.6 | 0.00 | 0.00 | 0.22 | 79 | 1013.0 |
| 20260505203543 | 59 | 330 | 0.0 | 3.5 | 0.00 | 0.00 | 0.22 | 80 | 1013.0 |
| 20260505203042 | 59 | 186 | 2.6 | 2.6 | 0.00 | 0.00 | 0.22 | 81 | 1013.0 |
| 20260505202543 | 59 | 186 | 1.7 | 2.6 | 0.00 | 0.00 | 0.22 | 82 | 1013.0 |
| 20260505202042 | 59 | 179 | 2.6 | 2.6 | 0.00 | 0.00 | 0.22 | 82 | 1013.0 |
| 20260505201542 | 59 | 149 | 1.7 | 4.3 | 0.00 | 0.00 | 0.22 | 83 | 1013.0 |
| 20260505201043 | 60 | 185 | 3.5 | 4.3 | 0.00 | 0.00 | 0.22 | 84 | 1013.0 |
| 20260505200544 | 60 | 123 | 1.7 | 3.5 | 0.00 | 0.00 | 0.22 | 84 | 1013.0 |
| 20260505200044 | 60 | 146 | 2.6 | 3.5 | 0.00 | 0.00 | 0.22 | 83 | 1012.0 |
| 20260505195542 | 60 | 146 | 1.7 | 4.3 | 0.00 | 0.00 | 0.22 | 82 | 1012.0 |
| 20260505195046 | 60 | 141 | 3.5 | 4.3 | 0.00 | 0.00 | 0.22 | 81 | 1012.0 |
| 20260505194542 | 60 | 136 | 2.6 | 2.6 | 0.00 | 0.00 | 0.22 | 80 | 1012.0 |
| 20260505194042 | 60 | 152 | 2.6 | 2.6 | 0.00 | 0.00 | 0.22 | 81 | 1012.0 |
| 20260505193543 | 60 | 156 | 0.9 | 0.9 | 0.00 | 0.00 | 0.22 | 81 | 1012.0 |
| 20260505193042 | 60 | 5 | 1.7 | 2.6 | 0.00 | 0.00 | 0.22 | 81 | 1012.0 |
| 20260505192542 | 60 | 347 | 3.5 | 4.3 | 0.00 | 0.00 | 0.22 | 81 | 1012.0 |
| 20260505192043 | 60 | 106 | 1.7 | 3.5 | 0.00 | 0.00 | 0.22 | 81 | 1012.0 |
| 20260505191542 | 60 | 84 | 2.6 | 3.5 | 0.00 | 0.00 | 0.22 | 81 | 1012.0 |
| 20260505191042 | 61 | 70 | 1.7 | 3.5 | 0.00 | 0.00 | 0.22 | 82 | 1012.0 |
| 20260505190543 | 61 | 93 | 0.9 | 2.6 | 0.00 | 0.00 | 0.22 | 81 | 1012.0 |
| 20260505190043 | 61 | 112 | 2.6 | 5.2 | 0.00 | 0.00 | 0.22 | 79 | 1012.0 |
| 20260505185542 | 62 | 113 | 1.7 | 3.5 | 0.00 | 0.00 | 0.22 | 78 | 1012.0 |
| 20260505185042 | 62 | 51 | 2.6 | 5.2 | 0.00 | 0.00 | 0.22 | 76 | 1012.0 |
| 20260505184543 | 62 | 107 | 1.7 | 4.3 | 0.00 | 0.00 | 0.22 | 72 | 1012.0 |
| 20260505184042 | 62 | 109 | 1.7 | 3.5 | 0.00 | 0.00 | 0.22 | 71 | 1012.0 |
| 20260505183543 | 62 | 82 | 3.5 | 4.3 | 0.00 | 0.00 | 0.22 | 73 | 1012.0 |
| 20260505183043 | 62 | 71 | 1.7 | 2.6 | 0.00 | 0.00 | 0.22 | 73 | 1012.0 |
| 20260505182545 | 62 | 41 | 1.7 | 1.7 | 0.00 | 0.00 | 0.22 | 73 | 1012.0 |
| 20260505182043 | 62 | 63 | 1.7 | 2.6 | 0.00 | 0.00 | 0.22 | 73 | 1012.0 |
| 20260505181542 | 62 | 58 | 1.7 | 2.6 | 0.00 | 0.00 | 0.22 | 72 | 1012.0 |